DECAYED

STARLINK-1117, 44952 (Decayed)

Orbit data source: Space-Track

STARLINK-1117, 44952 was a payload satellite owned by SpaceX/Seattle (US) in LEO that was launched on Tue, 07 Jan 2020 UTC via an FALCON 9 launch vehicle from the Air Force Eastern Test Range (AFETR). Payload-class satellites include a variety of spacecraft equipped with specific instruments for various scientific and technological missions. These include communications satellites like Starlink; space stations such as the ISS; scientific satellites like the Hubble; Earth observation satellites from companies like Planet Labs, Umbra, and HawkEye 360; GPS; miniature CubeSats for education and research; and military/defense satellites.

Not visible in the next 10 days
Identifier
44952, 2020-001AQ
Orbit
Decayed
Country
Flag of USUS
Related business
Manufacturer
SpaceX/Seattle
Mission
Decayed Commercial Communications
Bus & Motor
STARLINK, Unknown motor
Mass
260 kg wet, ~248 kg dry
Launch date (UTC)
2020-01-07 (6 years ago)
Launch vehicle
FALCON 9
Launch site
Air Force Eastern Test Range (AFETR)
Object type
Payload
Rocket body
Debris
Shape & HBR
Box + 1 Pan, 10.1 m
Radar Cross Section
13.562 m², Large (>1 m²)

Expand to show TLE details & history
Last TLE update: 6 months ago

TLE from 6 months ago
0 STARLINK-1117
1 44952U 20001AQ  25151.89984605  .14040411  12452-4  34859-3 0  9995
2 44952  53.0270  93.1678 0006501 232.3413 236.9476 16.45645907298459
Epoch: 2025-05-31T21:35Z
TLE epoch observation values (Epoch: 2025-05-31T21:35:46.698Z)
Latitude
49.12415°
Longitude
-0.27055°
Altitude
158.702 km
Speed
7.816 km/s
True Right ascension
14h 13m 13s
True Declination
48° 56' 18"
Sunlit
Object was in partial shadow at epoch
Visualization orbit readout
Latitude
Unknown
Longitude
Unknown
Altitude
Unknown
Speed
Unknown
Apparent Right ascension
Unknown
Apparent Declination
Unknown
Sunlit
N/A
Visualization observer readout
Local Sidereal Time
20:11:44
Azimuth
Unknown
Elevation
Unknown
Doppler factor
Unknown
Orbital elements
Apogee altitude
155.363 km
Perigee altitude
146.873 km
Semi-major axis
6,529.255 km
Eccentricity
0.00065
Inclination
53.027°
RAAN
93.1678°
Arg. of periapsis
232.3413°
True anomaly
236.88519°
Mean anomaly
236.9476°
Eccentric anomaly
236.91639°
Mean motion
4.11384 °/min
Orbital period
87.51 mins
BSTAR
0.00034859
Loading maneuver chart data...
Computing Atmospheric mass density...

Documentation

Showing up to 5 results
|